Theta_e
317 320 323 327 328 326 325 323 322 322 321 320 321 322 322 322 323 325 315 317 318 316 315 314 315 316 316 316 320 324 328 330 331 331 332 331 331 331 330 329 329 329 328 329 327 326 324 325 322
318 320 325 327 327 328 325 323 321 321 320 319 318 319 320 322 317 316 315 317 316 314 314 314 314 314 314 315 315 316 321 324 325 326 327 327 326 325 325 324 324 324 325 327 328 329 328 326 325
318 320 327 327 326 324 324 322 322 320 318 318 319 317 319 320 315 315 315 316 314 313 313 313 313 312 312 313 314 313 314 314 315 316 317 319 318 318 319 319 320 322 323 324 324 324 323 323 324
321 322 321 322 323 324 322 322 322 319 317 317 318 319 314 314 314 312 315 316 314 312 312 311 309 309 308 309 309 309 310 311 311 311 311 311 311 311 311 312 312 312 313 315 317 321 323 324 324
320 322 324 323 322 322 321 321 320 320 319 318 316 319 317 312 313 314 315 316 312 311 310 309 308 308 307 307 307 307 308 307 307 306 305 305 304 304 304 304 304 305 306 307 309 311 312 313 316
322 321 323 323 322 321 320 319 319 320 319 318 317 318 317 313 313 313 315 314 311 310 309 308 308 307 306 306 306 305 304 303 303 302 302 302 302 302 302 302 302 302 302 302 302 302 303 306 310
323 324 323 323 322 322 321 318 319 320 319 318 316 319 315 311 311 312 311 311 310 308 307 308 307 306 306 306 305 303 302 302 301 301 301 301 301 301 301 302 301 301 301 301 301 301 301 301 302
320 322 323 323 322 322 320 318 318 319 320 316 315 319 319 312 311 311 310 309 307 306 306 306 306 305 306 306 305 303 302 301 301 301 301 301 302 302 302 302 302 302 301 301 301 301 301 301 301
318 322 324 323 322 322 318 318 315 315 317 314 314 315 315 312 312 310 308 307 306 306 305 306 305 305 305 305 304 302 302 301 301 302 302 302 302 302 302 302 302 302 301 301 300 300 300 300 300
321 324 324 321 321 320 319 318 318 315 316 316 315 313 313 310 310 310 309 308 307 307 306 305 304 304 304 302 302 301 301 301 301 301 302 302 302 302 303 303 304 304 302 300 300 299 300 300 300
321 322 321 320 318 317 318 317 317 316 318 318 318 316 312 309 309 309 308 308 308 307 306 306 305 304 303 302 301 300 300 300 300 301 301 301 301 302 303 304 304 303 301 299 299 299 299 299 299
320 320 319 319 317 316 317 317 317 316 318 318 318 318 315 312 309 310 308 307 305 303 305 306 305 304 302 301 300 299 299 299 300 300 300 301 301 302 303 303 302 300 299 298 297 297 297 298 298
319 321 318 317 316 316 315 315 317 317 317 317 315 315 313 312 310 309 308 307 306 303 303 306 305 304 302 300 300 299 299 299 299 300 300 300 300 302 301 300 299 298 297 296 296 296 296 296 296
318 318 318 317 317 316 315 317 315 318 317 317 316 313 312 311 311 309 308 307 306 303 303 304 304 303 301 300 299 298 298 298 298 299 299 299 301 301 301 300 298 298 297 296 295 295 295 295 295
316 317 319 318 317 317 315 317 317 317 315 316 316 314 312 312 310 310 309 308 306 304 302 303 303 301 300 299 298 298 298 298 298 299 299 300 300 300 299 298 297 296 295 294 294 293 293 294 294
317 318 319 320 317 315 315 319 319 318 316 315 315 315 313 312 311 311 309 308 306 304 303 302 302 301 300 299 298 298 298 298 298 298 299 300 300 299 298 297 296 295 294 293 293 293 293 293 293
320 320 320 320 316 316 316 319 319 317 315 315 316 316 315 313 311 310 309 307 305 304 301 302 302 301 300 298 297 297 297 297 297 297 298 299 299 298 298 296 295 294 293 293 293 292 292 292 293
319 320 319 319 319 316 317 316 318 317 317 316 315 315 315 315 313 310 308 306 304 302 301 301 302 301 299 298 297 297 297 297 297 297 298 299 299 297 296 295 294 293 293 293 292 292 292 292 293
319 319 318 318 317 317 318 317 318 318 317 317 316 316 316 314 315 311 307 305 303 301 300 300 301 300 299 298 297 296 297 296 296 296 297 298 297 296 295 294 292 292 292 292 291 291 290 290 290
318 318 318 318 318 314 317 317 318 317 317 316 315 315 315 315 314 312 308 305 302 301 300 299 300 300 299 298 297 296 296 295 295 296 297 297 296 295 294 293 292 292 291 290 290 289 289 289 288
317 317 318 318 318 313 314 315 316 316 315 314 314 314 314 314 315 312 308 304 302 301 302 301 301 301 300 299 297 296 295 295 294 295 296 296 295 294 293 292 292 291 289 289 289 289 288 288 288
317 317 318 318 318 318 314 317 318 317 317 316 314 314 315 315 313 312 307 304 304 304 303 302 301 300 299 298 297 296 296 295 294 294 295 295 295 293 292 292 291 290 289 289 288 287 287 287 287
316 312 314 316 317 317 316 317 316 315 315 314 314 314 315 315 312 310 308 307 306 305 306 304 300 299 299 298 297 296 295 294 293 294 294 294 294 293 292 291 290 289 288 287 287 287 287 287 286
310 312 313 312 314 317 317 317 317 317 314 314 313 313 314 313 310 308 307 306 306 305 305 304 301 298 298 298 297 296 294 293 293 293 294 293 293 293 292 290 289 288 288 288 287 287 287 287 287
311 315 318 322 321 320 318 317 317 316 315 314 314 314 313 311 310 309 307 308 307 306 306 305 303 300 299 298 296 295 293 292 292 292 293 293 293 292 290 289 289 289 288 288 287 287 287 286 286
312 316 320 324 320 320 316 316 316 316 315 314 313 313 312 309 309 309 309 309 309 308 307 306 304 302 299 299 296 294 293 292 292 292 292 292 292 291 289 289 289 288 288 287 287 287 286 285 285
313 313 315 319 319 320 315 316 317 315 314 313 312 310 310 309 308 308 309 309 308 308 309 308 306 302 299 298 296 294 293 292 291 291 291 291 290 289 289 288 288 288 288 287 287 286 285 284 284
310 310 314 315 320 319 317 319 320 318 315 313 312 311 311 311 310 308 308 308 308 308 308 307 304 303 299 297 295 294 293 291 291 290 291 291 290 289 288 288 288 288 287 286 285 285 284 283 282
307 310 309 310 316 320 320 318 315 315 316 314 313 311 311 312 310 309 309 308 308 308 307 305 304 302 298 296 294 293 292 291 290 290 290 290 289 288 288 287 287 287 286 285 284 283 283 282 282
309 313 313 314 315 313 315 316 312 313 313 314 312 310 311 310 310 310 310 309 309 308 306 305 303 301 298 295 293 291 291 290 290 290 290 289 288 288 287 287 286 285 285 284 283 283 282 281 281
Wind_Speed
4 3 1 2 5 5 4 4 2 7 5 4 4 6 5 4 2 2 6 13 12 8 4 3 2 2 4 4 6 7 8 8 9 9 9 8 9 10 11 11 11 12 12 13 14 15 15 17 16
4 2 2 4 6 8 2 5 7 7 6 8 6 3 4 2 2 3 7 15 12 9 6 4 3 3 3 5 7 8 9 10 10 11 11 11 11 11 12 13 13 14 14 14 15 15 16 17 17
5 3 5 4 6 8 5 5 6 8 8 9 6 4 3 1 3 8 12 15 11 9 8 5 2 2 2 4 5 6 8 9 10 11 12 13 14 14 15 15 16 16 17 18 19 19 19 19 20
0 3 6 6 11 3 5 3 7 11 5 4 3 4 1 8 6 8 15 14 12 9 5 2 2 1 1 2 4 5 5 6 7 8 8 8 9 10 12 13 15 17 19 20 21 22 21 21 22
2 5 7 8 10 3 2 2 8 11 7 8 7 1 2 6 11 9 15 14 13 10 8 7 5 3 3 3 3 4 5 6 6 7 8 9 10 10 11 12 14 15 16 17 19 21 22 23 24
6 5 6 8 4 1 3 5 9 11 7 6 7 7 4 10 13 13 15 16 14 13 11 9 7 6 5 4 3 4 4 5 6 6 6 7 8 9 11 12 13 14 15 16 18 20 22 23 23
7 6 10 9 9 5 6 8 12 11 10 10 2 5 2 10 13 16 18 18 16 15 14 12 10 8 7 5 6 5 5 5 5 5 5 6 7 8 10 13 15 16 18 19 19 19 20 20 22
4 4 7 6 6 6 4 9 4 12 12 9 7 6 8 13 16 17 19 19 19 19 17 16 14 10 8 7 8 7 7 6 5 5 5 7 8 10 12 14 16 18 20 21 22 22 21 20 20
3 5 7 5 4 2 4 10 4 6 10 8 10 10 10 10 15 19 21 21 22 22 21 19 15 12 11 10 9 9 8 7 6 6 6 7 8 9 11 12 14 16 18 18 19 20 21 21 23
7 5 5 1 4 4 7 11 8 6 13 18 17 16 19 17 18 21 24 25 25 25 24 21 17 16 14 13 12 11 10 9 7 6 6 5 6 8 10 12 14 17 18 18 18 18 18 19 19
4 5 2 6 8 6 9 10 12 11 14 18 19 21 22 22 23 24 25 25 25 25 26 24 22 19 18 16 14 13 11 10 10 8 7 6 7 8 10 12 15 17 18 18 17 17 18 18 19
5 13 9 3 5 4 9 7 9 22 24 8 14 16 23 24 27 28 28 27 25 25 27 27 26 23 21 18 17 16 14 12 11 9 8 8 9 9 12 13 16 18 19 19 19 19 20 21 21
11 12 8 10 7 11 8 15 13 22 24 22 17 19 20 24 27 27 27 26 26 27 28 30 28 26 23 21 20 18 16 14 12 11 10 9 9 11 12 14 17 20 21 21 21 21 21 21 22
6 10 12 9 13 11 10 15 6 15 16 24 22 21 21 25 26 25 28 29 30 30 30 30 30 28 26 24 22 20 17 14 12 11 10 9 11 12 13 15 18 21 23 23 23 24 25 25 26
6 9 12 16 14 6 8 11 18 28 12 14 19 23 23 26 25 31 30 31 31 32 29 31 31 29 27 25 23 21 18 16 14 13 11 11 11 12 14 16 19 21 23 24 24 24 25 27 28
6 6 11 1 11 6 8 18 11 11 13 16 19 22 24 27 31 30 30 30 31 32 32 32 31 31 29 27 24 22 20 18 17 15 13 12 12 13 15 17 19 22 23 24 24 25 28 30 32
10 12 16 12 15 4 13 15 4 6 9 18 21 24 26 27 29 30 30 32 32 33 32 34 34 32 30 29 26 25 22 20 19 16 14 13 14 14 16 18 19 20 22 23 24 25 28 31 34
16 17 15 16 10 13 14 21 23 23 21 27 30 31 31 32 31 28 29 30 31 32 32 34 35 34 33 31 29 27 25 24 21 19 16 16 16 16 17 18 19 20 21 22 24 27 28 31 34
22 21 23 25 7 11 19 22 25 29 26 30 33 34 33 32 28 27 28 31 33 32 34 36 36 36 36 35 32 30 28 26 24 21 19 18 18 17 17 18 20 22 22 22 23 25 27 29 30
20 22 26 23 7 7 17 22 22 22 28 34 32 33 30 23 22 25 26 31 38 37 38 37 36 37 38 37 34 32 29 29 26 24 22 20 19 19 19 19 21 22 22 20 22 24 27 27 25
19 21 22 21 8 12 13 16 16 14 23 27 29 37 29 24 22 24 29 33 35 38 38 39 39 40 41 39 36 34 32 29 28 26 25 22 21 19 19 20 21 22 21 20 22 25 26 26 25
20 16 19 19 11 11 3 14 12 15 17 14 25 35 26 18 18 21 26 31 34 35 35 36 39 41 41 40 40 38 35 32 29 27 26 23 21 19 20 21 22 22 22 21 23 24 25 26 26
12 3 4 9 13 17 14 13 15 7 9 13 17 34 26 13 16 20 27 29 29 30 32 35 39 43 43 43 41 39 37 33 31 30 27 24 22 21 21 21 21 22 22 20 24 25 26 28 28
5 3 5 5 7 11 17 18 8 8 5 5 12 29 12 11 11 16 20 23 26 29 31 35 38 42 43 43 42 41 39 36 34 31 28 25 22 22 23 21 20 22 23 23 26 29 32 33 33
8 6 6 8 7 17 14 14 16 9 13 14 21 30 8 7 11 17 22 23 25 30 31 33 34 39 41 42 44 44 42 38 36 32 29 25 24 23 21 21 22 23 25 26 29 32 34 34 35
14 11 6 13 15 25 3 14 11 13 17 22 27 18 13 12 14 18 21 22 25 29 31 29 31 35 40 41 45 46 44 41 37 33 28 27 24 21 21 22 23 24 26 28 31 33 34 34 36
8 7 3 8 1 9 14 21 15 7 11 17 9 12 19 16 18 22 24 25 27 29 31 29 31 32 37 41 44 47 45 43 38 32 29 26 23 22 22 23 24 25 27 29 32 35 35 35 36
6 2 5 4 7 17 27 22 14 15 17 11 8 12 23 13 18 20 23 25 27 29 30 33 33 32 34 40 45 48 46 42 36 33 29 24 23 23 23 24 24 26 28 30 32 35 35 37 38
5 6 6 3 7 11 19 12 7 8 5 8 8 13 17 9 13 14 21 24 28 32 35 36 33 35 36 41 46 48 46 41 37 33 28 25 24 23 23 24 25 26 28 30 32 33 35 37 38
8 21 18 9 13 8 13 27 7 1 3 4 7 10 10 10 12 21 27 24 29 36 37 37 35 36 38 42 46 48 47 41 38 32 28 25 23 23 23 24 25 26 28 30 32 33 34 36 37
Wind_Direction
177 171 146 260 245 235 237 195 115 164 168 144 195 176 260 337 297 354 173 168 172 171 181 193 193 241 254 247 253 260 255 257 266 269 270 274 276 279 281 287 291 295 294 294 293 294 297 299 301
175 185 273 271 255 247 152 137 184 172 107 157 168 224 258 218 87 151 144 171 173 177 189 200 199 243 251 255 255 261 260 261 265 269 274 276 275 279 282 287 287 288 288 287 286 288 292 291 295
166 177 258 243 259 269 348 166 165 112 139 168 177 221 300 74 159 160 194 178 181 186 202 207 216 253 263 273 279 274 276 277 272 272 273 274 280 282 285 286 286 288 290 291 291 290 289 292 291
350 233 244 250 260 280 312 181 137 148 159 189 221 208 215 198 165 185 178 183 194 198 213 193 166 140 3 327 314 311 311 304 306 308 300 296 295 295 293 291 293 293 292 290 289 289 290 290 290
227 254 255 249 275 279 242 264 169 179 164 182 193 218 221 228 208 204 186 196 201 202 202 195 202 213 246 273 287 296 301 307 307 309 306 307 307 304 300 297 294 292 292 291 290 289 286 282 280
243 273 253 260 285 195 242 201 194 199 182 151 205 245 238 232 213 205 199 201 205 205 203 208 219 225 241 251 273 280 280 283 287 292 294 299 303 308 310 311 313 312 309 305 302 297 294 294 291
262 261 276 296 277 253 227 190 203 210 200 210 225 236 185 224 211 207 201 207 208 209 208 216 223 229 241 253 264 266 272 279 289 297 307 318 324 331 335 336 335 334 331 327 322 316 312 304 294
251 268 272 256 294 271 165 190 230 223 233 189 192 232 228 223 211 208 209 210 211 211 212 216 220 226 237 250 261 267 274 278 292 307 324 334 340 345 343 336 334 331 329 327 324 322 319 315 310
218 250 264 271 264 348 166 209 212 231 224 206 221 241 226 215 212 205 210 212 214 217 219 222 224 228 235 240 245 252 261 269 277 298 316 326 333 333 333 335 332 328 323 319 319 320 321 322 320
236 252 277 308 261 246 196 226 209 223 224 232 236 232 238 223 215 211 213 216 218 221 223 223 225 226 231 234 235 237 235 235 244 255 266 285 302 319 330 334 334 329 322 316 315 315 316 317 316
210 251 353 247 243 245 239 226 216 224 247 232 236 233 231 218 223 221 221 221 224 223 225 225 227 229 231 233 236 237 233 232 236 240 254 276 298 313 321 323 324 324 320 316 316 318 318 319 319
256 248 246 251 229 235 235 255 228 227 236 248 243 242 221 222 225 227 224 219 216 215 222 223 226 226 228 229 229 229 229 233 238 247 264 279 294 305 312 315 319 322 325 324 324 325 324 322 320
246 273 250 247 231 237 250 241 248 256 250 248 246 235 216 229 229 230 226 222 215 216 220 223 225 226 227 226 227 229 231 232 238 249 261 272 284 301 311 314 319 323 326 326 326 325 324 322 320
343 280 263 256 244 236 232 258 243 264 250 243 236 238 229 229 230 226 222 220 216 217 221 222 223 224 224 224 225 226 229 233 239 250 264 280 295 304 309 316 320 322 325 324 327 329 329 328 326
274 279 270 245 239 241 214 250 236 255 251 237 234 236 234 232 227 229 230 225 221 223 218 222 222 222 223 224 225 228 230 236 245 254 264 279 289 297 306 315 318 321 324 326 329 330 329 327 325
257 252 267 295 186 203 194 268 248 254 208 237 243 243 240 235 234 232 226 226 221 221 219 221 221 222 223 225 227 230 232 236 240 245 255 266 279 293 305 312 316 321 322 324 326 328 328 326 325
212 264 266 247 191 177 208 267 273 180 237 261 259 256 249 244 237 230 225 223 221 220 216 221 221 223 223 226 226 229 233 235 239 241 250 265 279 289 298 305 312 316 319 320 323 326 326 325 325
271 266 266 263 198 214 232 251 270 268 268 265 267 266 262 252 243 235 226 220 219 216 216 221 222 222 223 226 227 229 231 234 238 240 250 263 273 283 294 304 310 314 314 319 325 325 324 324 323
275 282 278 273 266 213 241 253 264 277 276 274 271 273 264 258 254 235 226 218 214 212 213 220 220 221 224 225 226 228 232 234 236 239 247 259 271 280 291 300 306 312 316 321 322 321 320 321 322
263 263 269 275 273 209 267 267 267 271 268 267 274 273 268 268 245 227 218 212 215 216 221 221 221 222 226 228 229 231 233 233 235 238 246 256 267 277 289 300 306 309 311 315 319 318 317 318 321
249 252 261 263 273 220 273 272 258 248 253 261 268 266 270 263 246 219 211 209 214 217 223 223 225 227 229 229 227 228 230 232 234 238 245 254 264 278 292 300 303 303 304 313 315 313 312 311 314
262 268 253 266 273 265 157 285 273 286 267 240 266 276 272 259 233 217 207 209 217 220 223 228 228 229 230 229 229 230 234 234 236 238 242 252 267 279 289 294 296 302 304 313 311 307 307 309 310
250 341 258 253 256 277 263 269 271 224 265 250 247 262 276 279 226 216 220 219 219 219 223 228 228 229 231 231 231 231 230 231 231 237 242 253 264 276 283 288 296 300 300 304 303 304 307 307 303
114 255 243 232 260 253 253 239 281 234 205 238 256 263 255 258 229 209 212 214 213 220 222 229 230 231 231 233 231 231 231 230 232 236 242 251 264 273 281 289 292 294 298 304 305 305 305 303 298
201 212 270 248 228 262 270 263 265 278 254 239 257 265 274 230 206 201 203 210 215 218 222 228 230 232 235 234 230 229 230 231 233 236 241 250 258 268 279 285 289 293 297 302 303 303 302 299 295
197 215 220 273 270 284 240 265 255 250 239 239 251 258 252 226 220 218 214 222 225 223 221 222 228 230 234 236 229 229 229 230 232 236 242 250 259 268 274 279 284 289 296 300 302 301 298 296 294
161 204 293 272 215 280 268 259 255 168 199 228 232 238 251 234 231 228 230 238 232 226 226 228 230 230 233 238 231 229 228 229 231 234 240 249 260 268 272 276 281 291 296 300 300 298 298 297 295
229 110 179 214 275 266 279 281 269 265 235 222 232 238 260 244 229 236 239 239 236 235 233 228 231 235 235 233 233 231 229 227 229 233 240 249 258 265 269 276 286 292 297 299 299 299 299 296 294
185 222 222 287 240 258 278 273 74 111 148 177 215 240 257 253 254 258 255 252 247 241 235 231 233 234 232 231 232 231 229 225 226 232 238 247 256 263 271 279 286 292 296 298 299 300 301 297 295
265 232 217 221 226 231 251 273 70 211 251 148 157 220 233 239 260 282 271 262 255 243 237 236 236 236 234 231 228 229 229 223 226 230 237 245 254 263 270 278 286 292 297 300 301 302 300 296 295